Ariane H10 - Orbit

View from above orbital plane
View from above orbital plane
View from above satellite
View from above satellite

Ground track
Ground track

The orbit data is extracted from the following two-line orbital elements,

1 19122U 88040B   13169.97343877  .00001395  00000-0  51774-2 0  8468
2 19122 007.4767 040.1676 7172866 061.5624 351.5364 02.31823634162944
Epoch (UTC): 18 June 2013 23:21:45
Eccentricity: 0.7172866
inclination: 7.4767°
perigee height: 439 km
apogee height: 35035 km
right ascension of ascending node: 40.1676°
argument of perigee: 61.5624°
revolutions per day: 2.31823634
mean anomaly at epoch: 351.5364°
orbit number at epoch: 16294

The dashed part of the orbit path shows where the satellite is in the earth's shadow,  

Developed and maintained by Chris Peat, Heavens-Above GmbH. Please read the updated FAQ before sending e-mail. Imprint. DLR